Regional Weather Roundup
Issued by NWS

Home | Current Version | Previous Version | Text Only | Print | Product List | Glossary On
Versions: 1 2 3 4 5 6 7 8 9 10 11 12 13 14 15 16 17 18 19 20 21 22 23 24 25 26 27 28 29 30 31 32 33 34 35 36 37 38 39 40 41 42 43 44 45 46 47 48 49 50
000
ASUS46 KSTO 281804
RWRCA

NORTHERN AND CENTRAL CA REGIONAL WEATHER ROUNDUP
NATIONAL WEATHER SERVICE SACRAMENTO CA
1100 AM PDT SAT MAR 28 2015

NOTE: FAIR INDICATES FEW OR NO CLOUDS BELOW 12,000 FEET WITH NO
SIGNIFICANT WEATHER AND/OR OBSTRUCTIONS TO VISIBILITY.

CAZ001-003-281900-
NORTHWEST AREA

CITY           SKY/WX    TMP DP  RH WIND       PRES   REMARKS
CRESCENT CITY  MOSUNNY   53  46  77 N9        30.39S
UKIAH          SUNNY     62  42  47 CALM      30.24F
$$

CAZ006-505>513-281900-
BAY AREA

CITY           SKY/WX    TMP DP  RH WIND       PRES   REMARKS
SANTA ROSA     MOSUNNY   67  45  45 N10       30.18F
SAN RAFAEL     N/A       54  MM  MM MISG
NAPA           SUNNY     61  54  77 SW5       30.19F
CONCORD        SUNNY     67  47  48 CALM      30.19S
OAKLAND CITY   N/A       59  MM  MM MISG
OAKLAND        MOSUNNY   61  51  70 W7        30.20S
SAN FRAN CITY  N/A       65  MM  57 MISG
SAN FRAN ARPT  MOSUNNY   62  54  74 CALM      30.20S
LIVERMORE      SUNNY     67  43  41 SE3       30.19S
HAYWARD        SUNNY     64  53  67 W7        30.19S
REDWOOD CITY   N/A       MM  MM  MM MISG
MOFFETT ARPT   SUNNY     66  49  54 NW5       30.20S
SAN JOSE ARPT  PTSUNNY   64  50  60 VRB6      30.19S
$$
CAZ034-037-514>518-281900-
CENTRAL COAST

CITY           SKY/WX    TMP DP  RH WIND       PRES   REMARKS
WATSONVILLE    SUNNY     65  54  67 CALM      30.17R
SALINAS        SUNNY     60  50  69 VRB5      30.16F
MONTEREY       SUNNY     61  52  72 VRB3      30.17R
SAN LUIS OBISP SUNNY     72  51  47 W8        30.08F
SANTA MARIA    SUNNY     65  51  60 CALM      30.10F
$$
CAZ015-016-281900-
NORTHERN SACRAMENTO VALLEY

CITY           SKY/WX    TMP DP  RH WIND       PRES   REMARKS
REDDING        SUNNY     69  34  27 N14       30.22F
RED BLUFF      SUNNY     70  34  26 N16       30.22S
$$
CAZ016>018-281900-
SOUTHERN SACRAMENTO VALLEY

CITY           SKY/WX    TMP DP  RH WIND       PRES   REMARKS
AUBURN         SUNNY     70  48  46 NW5       30.18S
LINCOLN        FAIR      66  48  52 N12       30.16S
MARYSVILLE     SUNNY     70  44  39 N10       30.17F
SAC INTL ARPT  MOSUNNY   68  43  40 NW16      30.17S
MATHER AIRPORT MOSUNNY   64  50  59 N10       30.17R
DOWNTOWN SAC   N/A       67  MM  MM MISG
SAC EXEC ARPT  SUNNY     69  45  41 NW12      30.17S
VACAVILLE      SUNNY     73  33  23 N15G25    30.19S
$$
CAZ019>021-281900-
SAN JOAQUIN VALLEY

CITY           SKY/WX    TMP DP  RH WIND       PRES   REMARKS
STOCKTON       MOSUNNY   68  49  50 NW12      30.17R
MODESTO        MOSUNNY   68  51  54 NW17      30.16R
MERCED         SUNNY     68  50  52 NW15      30.13S
LEMOORE        SUNNY     72  46  39 NW17      30.14F
FRESNO         MOSUNNY   70  49  47 CALM      30.13S
HANFORD        SUNNY     72  47  40 NW14      30.13S
PORTERVILLE    SUNNY     72  48  43 W8        30.13S
BAKERSFIELD    SUNNY     75  44  33 W8        30.13S
$$
CAZ011-012-071-281900-
NORTHERN MOUNTAINS

CITY           SKY/WX    TMP DP  RH WIND       PRES   REMARKS
YREKA          MOSUNNY   51  33  50 N6        30.40S
MOUNT SHASTA   SUNNY     52  28  39 VRB5G17   30.35S
ALTURAS        SUNNY     48  23  37 W3        30.37F
$$
CAZ011-012-071-281900-
SIERRA NEVADA MTNS

CITY           SKY/WX    TMP DP  RH WIND       PRES   REMARKS
BLUE CANYON    SUNNY     61  23  23 VRB5      30.30S
TRUCKEE        SUNNY     46  32  57 CALM      30.32S
TAHOE VLY ARPT MOSUNNY   60  26  27 VRB5      30.32S
MAMMOTH LAKES  FAIR      63  12  14 SE7       30.32F
$$



USA.gov is the U.S. government's official web portal to all federal, state and local government web resources and services.